Date String (YYYY-MM-DD hh:mm:ss) UTC,Instrument flags,Ambient pressure (hPa),Sample flow (lpm),Bypass flow (lpm),Sample temperature (°C),Ambient temperature (°C),ASC tube jacket temperature (°C),LED temperature (°C),Box temperature (°C),Sample RH (%),Span deviation,Mass concentration (μg/m³),Mass concentration (μg/m³),Mass concentration (μg/m³)
DateTimeUTC,F1_M11,P_M11,Q1_M11,Q2_M11,T1_M11,T2_M11,T3_M11,T4_M11,T5_M11,U1_M11,ZSPAN_M11,X0_M11,X2_M11,X1_M11
2022-12-30 11:00:00,,0819.8,5.03,0.00,22.5,22.2,00.0,31.2,24.4,06.1,0000.0,0000.93,0000.63,0000.52
2022-12-30 11:01:00,,0819.9,5.02,0.00,22.5,21.8,00.0,31.2,24.3,06.2,0000.0,0000.94,0000.62,0000.50
2022-12-30 11:02:00,,0819.9,4.99,0.00,22.4,21.5,00.0,31.2,24.2,06.1,0000.0,0000.93,0000.61,0000.49
2022-12-30 11:03:00,,0819.8,4.97,0.00,22.4,21.3,00.0,31.2,24.1,06.0,0000.0,0000.94,0000.61,0000.49
2022-12-30 11:04:00,,0819.8,5.04,0.00,22.4,21.1,00.0,31.2,24.1,05.9,0000.0,0000.89,0000.59,0000.49
2022-12-30 11:05:00,,0819.8,5.00,0.00,22.4,21.0,00.0,31.2,24.0,05.7,0000.0,0000.87,0000.57,0000.48
2022-12-30 11:06:00,,0819.9,5.01,0.00,22.3,20.9,00.0,31.2,24.0,05.7,0000.0,0000.79,0000.54,0000.46
2022-12-30 11:07:00,,0819.9,5.00,0.00,22.3,20.8,00.0,31.2,24.0,05.7,0000.0,0000.78,0000.53,0000.46
2022-12-30 11:08:00,,0819.9,4.97,0.00,22.3,20.8,00.0,31.2,24.0,05.9,0000.0,0000.77,0000.52,0000.44
2022-12-30 11:09:00,,0819.9,5.00,0.00,22.3,20.8,00.0,31.2,23.9,06.0,0000.0,0000.74,0000.50,0000.43
2022-12-30 11:10:00,,0819.9,5.01,0.00,22.3,20.7,00.0,31.2,23.9,06.3,0000.0,0000.74,0000.50,0000.42
2022-12-30 11:11:00,,0819.9,5.02,0.00,22.2,20.7,00.0,31.1,23.9,06.6,0000.0,0000.84,0000.52,0000.43
2022-12-30 11:12:00,,0819.9,5.02,0.00,22.2,20.6,00.0,31.1,23.9,06.8,0000.0,0001.37,0000.55,0000.44
2022-12-30 11:13:00,,0819.8,4.96,0.00,22.2,20.8,00.0,31.1,23.9,06.7,0000.0,0001.68,0000.60,0000.46
2022-12-30 11:14:00,,0820.0,5.00,0.00,22.3,21.8,00.0,31.1,24.1,06.8,0000.0,0001.71,0000.62,0000.48
2022-12-30 11:15:00,,0819.9,5.03,0.00,22.4,22.8,00.0,31.1,24.4,06.7,0000.0,0001.75,0000.64,0000.49
2022-12-30 11:16:00,,0819.9,4.98,0.00,22.5,22.9,00.0,31.1,24.5,06.6,0000.0,0001.93,0000.70,0000.50
2022-12-30 11:17:00,,0819.9,4.98,0.00,22.5,22.4,00.0,31.2,24.4,06.6,0000.0,0002.00,0000.72,0000.52
2022-12-30 11:18:00,,0819.8,5.02,0.00,22.5,22.0,00.0,31.2,24.3,06.4,0000.0,0002.04,0000.74,0000.53
2022-12-30 11:19:00,,0819.8,5.03,0.00,22.5,21.7,00.0,31.2,24.2,06.6,0000.0,0002.06,0000.75,0000.54
2022-12-30 11:20:00,,0819.8,4.99,0.00,22.5,21.4,00.0,31.2,24.2,06.6,0000.0,0002.09,0000.77,0000.55
2022-12-30 11:21:00,,0819.9,4.98,0.00,22.4,21.3,00.0,31.2,24.2,06.6,0000.0,0002.14,0000.78,0000.55
2022-12-30 11:22:00,,0819.9,4.97,0.00,22.4,21.2,00.0,31.2,24.1,06.5,0000.0,0002.02,0000.75,0000.54
2022-12-30 11:23:00,,0819.9,5.01,0.00,22.4,21.0,00.0,31.2,24.1,06.4,0000.0,0001.57,0000.71,0000.53
2022-12-30 11:24:00,,0819.9,5.03,0.00,22.4,21.0,00.0,31.2,24.1,06.4,0000.0,0001.17,0000.68,0000.52
2022-12-30 11:25:00,,0819.9,5.00,0.00,22.4,20.9,00.0,31.2,24.1,06.5,0000.0,0001.18,0000.66,0000.49
2022-12-30 11:26:00,,0819.9,4.99,0.00,22.3,20.6,00.0,31.2,23.9,07.0,0000.0,0001.17,0000.67,0000.49
2022-12-30 11:27:00,,0819.9,4.98,0.00,22.2,20.1,00.0,31.2,23.6,07.4,0000.0,0001.12,0000.72,0000.57
2022-12-30 11:28:00,,0819.9,4.98,0.00,22.1,19.8,00.0,31.2,23.5,07.4,0000.0,0001.14,0000.78,0000.63
2022-12-30 11:29:00,,0820.0,4.97,0.00,22.1,20.1,00.0,31.1,23.6,07.3,0000.0,0001.21,0000.84,0000.68
2022-12-30 11:30:00,,0819.9,4.98,0.00,22.1,21.2,00.0,31.0,23.8,07.4,0000.0,0001.51,0000.93,0000.73
2022-12-30 11:31:00,,0819.9,5.02,0.00,22.2,22.1,00.0,31.0,24.1,07.6,0000.0,0001.74,0001.05,0000.80
2022-12-30 11:32:00,,0819.9,5.00,0.00,22.3,22.1,00.0,31.1,24.1,07.4,0000.0,0001.87,0001.14,0000.87
2022-12-30 11:33:00,,0819.9,4.99,0.00,22.3,21.3,00.0,31.1,23.9,07.5,0000.0,0002.10,0001.27,0000.95
2022-12-30 11:34:00,,0820.0,4.98,0.00,22.2,20.7,00.0,31.1,23.7,07.7,0000.0,0002.37,0001.41,0001.05
2022-12-30 11:35:00,,0819.9,4.98,0.00,22.1,20.2,00.0,31.1,23.5,07.7,0000.0,0002.45,0001.49,0001.14
2022-12-30 11:36:00,,0819.9,5.01,0.00,22.0,19.9,00.0,31.1,23.3,07.7,0000.0,0002.62,0001.61,0001.24
2022-12-30 11:37:00,,0820.0,5.02,0.00,21.9,19.6,00.0,31.0,23.2,07.7,0000.0,0002.71,0001.68,0001.32
2022-12-30 11:38:00,,0820.0,5.00,0.00,21.8,19.5,00.0,31.0,23.1,07.6,0000.0,0002.71,0001.67,0001.30
2022-12-30 11:39:00,,0820.0,4.99,0.00,21.8,19.5,00.0,30.9,23.2,07.6,0000.0,0002.96,0001.73,0001.30
2022-12-30 11:40:00,,0820.0,4.98,0.00,21.7,19.7,00.0,30.9,23.2,07.6,0000.0,0003.08,0001.78,0001.31
2022-12-30 11:41:00,,0820.1,4.99,0.00,21.8,20.9,00.0,30.8,23.5,07.5,0000.0,0002.84,0001.74,0001.31
2022-12-30 11:42:00,,0820.0,5.03,0.00,21.9,22.2,00.0,30.8,23.8,07.4,0000.0,0002.66,0001.67,0001.29
2022-12-30 11:43:00,,0820.0,5.01,0.00,22.1,22.8,00.0,30.8,24.1,07.3,0000.0,0002.84,0001.63,0001.27
2022-12-30 11:44:00,,0820.1,4.94,0.00,22.1,22.4,00.0,30.9,24.1,07.2,0000.0,0002.84,0001.58,0001.24
2022-12-30 11:45:00,,0820.1,5.02,0.00,22.2,22.0,00.0,30.9,24.0,07.2,0000.0,0002.62,0001.48,0001.18
2022-12-30 11:46:00,,0820.2,5.02,0.00,22.2,21.7,00.0,31.0,24.0,07.1,0000.0,0002.54,0001.42,0001.13
2022-12-30 11:47:00,,0820.2,4.97,0.00,22.2,21.2,00.0,31.0,23.8,07.2,0000.0,0002.42,0001.34,0001.08
2022-12-30 11:48:00,,0820.0,5.00,0.00,22.1,20.8,00.0,31.0,23.6,07.3,0000.0,0002.52,0001.34,0001.05
2022-12-30 11:49:00,,0819.9,5.02,0.00,22.0,20.5,00.0,31.0,23.6,07.1,0000.0,0002.45,0001.30,0001.02
2022-12-30 11:50:00,,0819.9,5.00,0.00,22.0,20.4,00.0,30.9,23.5,07.0,0000.0,0002.17,0001.20,0000.98
2022-12-30 11:51:00,,0820.0,5.00,0.00,22.0,20.2,00.0,30.9,23.4,07.2,0000.0,0002.05,0001.14,0000.95
2022-12-30 11:52:00,,0820.0,4.97,0.00,21.9,19.9,00.0,30.9,23.3,07.4,0000.0,0002.12,0001.17,0000.95
2022-12-30 11:53:00,,0820.0,4.97,0.00,21.8,19.6,00.0,30.9,23.2,07.5,0000.0,0002.17,0001.19,0000.96
2022-12-30 11:54:00,,0820.0,4.99,0.00,21.7,19.4,00.0,30.8,23.1,07.5,0000.0,0001.87,0001.18,0000.96
2022-12-30 11:55:00,,0819.9,5.07,0.00,21.6,19.3,00.0,30.8,23.0,07.2,0000.0,0001.69,0001.14,0000.94
2022-12-30 11:56:00,,0819.9,4.98,0.00,21.6,20.1,00.0,30.7,23.2,07.0,0000.0,0001.69,0001.12,0000.91
2022-12-30 11:57:00,,0819.8,4.98,0.00,21.8,21.5,00.0,30.7,23.5,06.9,0000.0,0001.69,0001.11,0000.90
2022-12-30 11:58:00,,0819.8,5.02,0.00,21.9,22.6,00.0,30.7,23.9,06.6,0000.0,0001.67,0001.09,0000.86
2022-12-30 11:59:00,,0819.8,5.02,0.00,22.0,22.4,00.0,30.7,23.9,06.5,0000.0,0001.47,0001.01,0000.80
